Jordan, MT

3:14 PM MDT on April 26, 2018 (GMT -0600)
Jordan

Weather History for KJDN - January, 2014

Change the Weather History Date:

Wednesday, January 22, 2014

  Actual Average Record
Temperature  
Mean Temperature 14 °F 18 °F  
Max Temperature 29 °F 29 °F 60 °F (1981)
Min Temperature -1 °F 6 °F -34 °F (2003)
Degree Days  
Heating Degree Days 51 47  
Month to date heating degree days 850 1061  
Since 1 July heating degree days 4437 4511  
Cooling Degree Days 0 0  
Month to date cooling degree days 0 0  
Year to date cooling degree days 0 0  
Moisture  
Dew Point 7 °F    
Average Humidity 79    
Maximum Humidity 87    
Minimum Humidity 70    
Precipitation  
Precipitation 0.00 in 0.01 in 0.20 in (1969)
Month to date precipitation 0.06 0.18  
Year to date precipitation 0.06 0.18  
Snow  
Snow 0.00 in - - ()
Month to date snowfall 0.0  
Since 1 July snowfall 0.0  
Snow Depth 0.00 in    
Sea Level Pressure  
Sea Level Pressure 30.53 in    
Wind  
Wind Speed 8 mph (NE)    
Max Wind Speed 18 mph    
Max Gust Speed 23 mph    
T = Trace of Precipitation, MM = Missing Value Source: NWS Daily Summary

Daily Weather History Graph

Daily Weather History Graph

Search for Another Location

Airport or City:

Astronomy

Jan. 22, 2014 Rise Set
Actual Time 7:44 AM MST 4:54 PM MST
Civil Twilight 7:10 AM MST 5:28 PM MST
Nautical Twilight 6:33 AM MST 6:05 PM MST
Astronomical Twilight 5:56 AM MST 6:42 PM MST
Moon No Moon Rise 10:19 AM MST (1/22)
Length of Visible Light 10h 17m
Length of Day
9h 10m
Waning Gibbous, 65% of the Moon is Illuminated
Jan 22
Waning Gibbous
Jan 23
Last Quarter
Jan 30
New
Feb 6
First Quarter
Feb 14
Full

Hourly Weather History & Observations

Time (MST) Temp. Windchill Dew Point Humidity Pressure Visibility Wind Dir Wind Speed Gust Speed Precip Events Conditions
12:48 AM 28.0 °F 19.3 °F 23.0 °F 81% 30.32 in - NW 9.2 mph - N/A   Unknown
1:48 AM 27.0 °F 15.6 °F 21.0 °F 78% 30.33 in - NNW 13.8 mph - N/A   Unknown
2:48 AM 27.0 °F 20.5 °F 21.0 °F 78% 30.35 in - North 5.8 mph - N/A   Unknown
3:48 AM 23.0 °F 13.1 °F 16.0 °F 74% 30.36 in - North 9.2 mph - N/A   Unknown
4:48 AM 19.9 °F 9.3 °F 15.1 °F 81% 30.39 in - North 9.2 mph - N/A   Unknown
5:48 AM 19.0 °F 6.1 °F 14.0 °F 81% 30.40 in - NNE 12.7 mph - N/A   Unknown
6:48 AM 18.0 °F 11.1 °F 12.9 °F 81% 30.43 in - NNE 4.6 mph - N/A   Unknown
7:48 AM 17.1 °F 4.3 °F 10.0 °F 74% 30.45 in - NNE 11.5 mph - N/A   Unknown
8:48 AM 16.0 °F 1.1 °F 10.0 °F 77% 30.47 in - East 15.0 mph - N/A   Unknown
9:48 AM 15.1 °F 1.8 °F 10.0 °F 80% 30.50 in - East 11.5 mph - N/A   Unknown
10:48 AM 12.9 °F -2.2 °F 8.1 °F 81% 30.52 in - East 13.8 mph - N/A   Unknown
11:48 AM 12.0 °F -2.7 °F 6.1 °F 77% 30.51 in - East 12.7 mph - N/A   Unknown
12:48 PM 12.0 °F -2.0 °F 6.1 °F 77% 30.51 in - East 11.5 mph - N/A   Unknown
1:48 PM 10.9 °F -2.6 °F 5.0 °F 77% 30.52 in - East 10.4 mph - N/A   Unknown
2:48 PM 12.0 °F -0.4 °F 5.0 °F 73% 30.53 in - East 9.2 mph - N/A   Unknown
3:48 PM 10.0 °F -3.7 °F 3.9 °F 76% 30.57 in - ENE 10.4 mph - N/A   Unknown
4:48 PM 9.0 °F 2.4 °F 1.9 °F 73% 30.61 in - East 3.5 mph - N/A   Unknown
5:48 PM 8.1 °F -4.3 °F 1.0 °F 73% 30.64 in - East 8.1 mph - N/A   Unknown
6:48 PM 5.0 °F -4.1 °F -0.0 °F 80% 30.67 in - East 4.6 mph - N/A   Unknown
7:48 PM 3.9 °F -3.4 °F -0.9 °F 80% 30.68 in - ENE 3.5 mph - N/A   Unknown
8:48 PM 3.0 °F - -2.0 °F 80% 30.69 in - Calm Calm - N/A   Unknown
9:48 PM 1.9 °F - -2.9 °F 80% 30.72 in - Calm Calm - N/A   Unknown
10:48 PM -0.0 °F - -6.0 °F 76% 30.72 in - Calm Calm - N/A   Unknown
11:48 PM 3.9 °F - -0.0 °F 84% 30.72 in - Calm Calm - N/A   Unknown